Regional Weather Roundup
Issued by NWS Green Bay, WI

Home | Current Version | Previous Version | Graphics & Text | Print | Product List | Glossary Off
Versions: 1 2 3 4 5 6 7 8 9 10 11 12 13 14 15 16 17 18 19 20 21 22 23 24 25 26 27 28 29 30 31 32 33 34 35 36 37 38 39 40 41 42 43 44 45 46 47 48 49 50

000
ASUS43 KGRB 221401
RWRGRB

NORTH-CENTRAL AND NORTHEAST WISCONSIN REGIONAL WEATHER ROUNDUP
NATIONAL WEATHER SERVICE GREEN BAY WI
900 AM CDT TUE AUG 22 2017

WIZ005-009-010>012-018-019-221500-
NORTH CENTRAL WISCONSIN

CITY           SKY/WX    TMP DP  RH WIND       PRES   REMARKS
IRONWOOD       CLOUDY    57  54  89 NW12      29.89R
MANITOWISH WTR NOT AVBL
ARBOR VITAE    NOT AVBL
EAGLE RIVER    NOT AVBL
LAND O LAKES   NOT AVBL
RHINELANDER    MOSUNNY   60  53  77 NW10G20   29.88R
PHILLIPS       CLOUDY    57  54  89 NW5       29.90S
ANTIGO         NOT AVBL
TOMAHAWK       NOT AVBL
MERRILL        NOT AVBL
$$

WIZ013-073-221500-
NORTHEAST WISCONSIN

CITY           SKY/WX    TMP DP  RH WIND       PRES   REMARKS
IRON MOUNTAIN  MOSUNNY   61  53  75 NW12      29.80R
MARINETTE      SUNNY     66  54  65 NW9G18    29.79R
$$

WIZ017-030-035>037-045-221500-
CENTRAL WISCONSIN

CITY           SKY/WX    TMP DP  RH WIND       PRES   REMARKS
MEDFORD        NOT AVBL
WAUSAU         SUNNY     63  53  70 NW18G25   29.87R
MOSINEE        NOT AVBL
MARSHFIELD     MOSUNNY   64  54  69 NW12      29.90R
WISC RAPIDS    SUNNY     65  55  70 N16G24    29.90R
STEVENS POINT  NOT AVBL
WAUPACA        NOT AVBL
SHAWANO        NOT AVBL
CLINTONVILLE   NOT AVBL
WAUTOMA        MOSUNNY   68  57  68 N15G21    29.87R
$$

WIZ038-039-048-051-221500-
FOX VALLEY

CITY           SKY/WX    TMP DP  RH WIND       PRES   REMARKS
NWS GREEN BAY  CLOUDY    66  59  78 NW21G29   29.81R
APPLETON       PTSUNNY   66  59  77 NW16G25   29.81R
OSHKOSH        PTSUNNY   70  63  78 W12       29.82R
FOND DU LAC    PTSUNNY   70  61  73 W15       29.83R
$$

WIZ022-050-052-221500-
EAST CENTRAL WISCONSIN

CITY           SKY/WX    TMP DP  RH WIND       PRES   REMARKS
EPHRAIM        NOT AVBL
WASHINGTON ISL NOT AVBL
STURGEON BAY   PTSUNNY   65  56  72 NW17      29.79R
MANITOWOC      NOT AVBL
SHEBOYGAN      MOSUNNY   70  65  84 W14       29.81R
$$

LMZ563-521-522-541>543-221500-
LAKESHORE

STATION/POSITION TIME  TEMP    WIND        PRES    VSBY  WAVE
                       AIR SEA DIR/SP/G                  HT/PER
                 (UTC) (F)     (DEG/KT/KT) (MB)    (MI)  (FT/S)
SHEBOYGAN LKSHOR 1300   68     260/ 17/ 19 1008.2R
KEWAUNEE LKSHORE 1330   70     300/  9/ 17 1007.1R
NORTHPORT PIER   1315   65     320/ 23/ 27 1007.5R
N MID LAKE BUOY  1250   63 68  320/ 27/ 31 1005.7R         3/ 4
S GREEN BAY BUOY 1330   67 71  310/ 23/ 27 1008.7R
SISTER BAY LKSHO 1318   67     350/ 21/ 25   N/A
MENOMINEE LKSHOR 1330   64     320/ 15/ 25 1008.3R
$$



USA.gov is the U.S. government's official web portal to all federal, state and local government web resources and services.